This is the latest recevied weather packets stored in our database for station/object KD5KNZ-13. If no packets are shown the sender has not sent any weather packets the latest 10 day(s).
| Time | Temp. | Humidity | Pressure | Rain* | Wind** | Luminosity | Snow |
|---|---|---|---|---|---|---|---|
| 1777718747 | 11.11° C | 96% | 1013.7 hPa | 0.76 mm | - | - | - |
| 1777715144 | 11.11° C | 96% | 1013.2 hPa | 1.02 mm | - | - | - |
| 1777711543 | 11.11° C | 96% | 1012.8 hPa | 1.02 mm | - | - | - |
| 1777702543 | 11.11° C | 96% | 1013.8 hPa | 1.02 mm | - | - | - |
| 1777701647 | 11.11° C | 96% | 1012.9 hPa | 1.02 mm | - | - | - |
| 1777698958 | 11.11° C | 96% | 1012.5 hPa | 1.02 mm | - | - | - |
| 1777685448 | 12.22° C | 96% | 1011.2 hPa | 1.27 mm | - | - | - |
| 1777684548 | 12.22° C | 96% | 1011.6 hPa | 1.52 mm | - | - | - |
| 1777682743 | 12.22° C | 96% | 1012.3 hPa | 1.52 mm | - | - | - |
| 1777666546 | 14.44° C | 95% | 1011.8 hPa | 1.27 mm | - | - | - |
| 1777665639 | 15° C | 95% | 1012.1 hPa | 1.27 mm | - | - | - |
| 1777661137 | 16.67° C | 91% | 1010.6 hPa | 0 mm | - | - | - |
| 1777657560 | 16.67° C | 91% | 1011.9 hPa | 0 mm | - | - | - |
| 1777656645 | 17.22° C | 93% | 1011.8 hPa | 0 mm | - | - | - |
| 1777654843 | 16.67° C | 94% | 1013.2 hPa | 0 mm | - | - | - |
| 1777653038 | 16.67° C | 94% | 1013.1 hPa | 0 mm | - | - | - |
| 1777648550 | 17.22° C | 95% | 1013.1 hPa | 0 mm | - | - | - |
| 1777644043 | 17.22° C | 95% | 1011.5 hPa | 0 mm | - | - | - |
| 1777643139 | 17.22° C | 96% | 1012.2 hPa | 0 mm | - | - | - |
| 1777642248 | 17.22° C | 96% | 1012.8 hPa | 0 mm | - | - | - |
| 1777639544 | 16.67° C | 96% | 1012.2 hPa | 0 mm | - | - | - |
| 1777637748 | 16.67° C | 96% | 1011.8 hPa | 0 mm | - | - | - |
| 1777635949 | 16.67° C | 96% | 1011.5 hPa | 0 mm | - | - | - |
| 1777631442 | 17.22° C | 96% | 1011.7 hPa | 0.25 mm | - | - | - |
| 1777630553 | 17.22° C | 96% | 1011.3 hPa | 0.51 mm | - | - | - |
* Rain latest hour (hover to see other rain measurements)
** Current wind speed in m/s (hover to see current wind gust speed)